Location: Bishopstone
(51.0167°N, 1.9000°W)
Time: 15:36:38
(UTC+00:00)

ERS-1 Rocket - Pass Details

Date: 16 September 2019
Orbit: 754 x 757 km, 98.5° (Epoch: 15 October)

Event Time Altitude Azimuth Distance (km) Brightness Sun altitude
Exits shadow 21:40:24 69° 297° (WNW) 810 3.1 -28.6°
Drops below altitude 10° 21:45:03 10° 342° (NNW) 2,294 6.3 -29.0°
Sets 21:47:22 0° 344° (NNW) 3,224 7.2 -29.3°
